Terminal Aerodrome Forecast
Issued by NWS Mobile, AL

Home | Current Version | Previous Version | Text Only | Print | Product List | Glossary On
Versions: 1 2 3 4 5 6 7 8 9 10 11 12 13 14 15
000
FTUS44 KMOB 240500
TAFMOB
TAF
KMOB 240535Z 2406/2506 00000KT P6SM FEW070
      TEMPO 2409/2412 1SM BR
     FM241500 19008KT P6SM FEW040 SCT250=

USA.gov is the U.S. government's official web portal to all federal, state and local government web resources and services.